Time,TemperatureF,DewpointF,PressureIn,WindDirection,WindDirectionDegrees,WindSpeedMPH,WindSpeedGustMPH,Humidity,HourlyPrecipIn,Conditions,Clouds,dailyrainin,SoftwareType,DateUTC
2013-08-04 00:02:00,63.0,46.6,-100.00,North,-999,-999.0,-999.0,55,-99.99,,---,-99.99,VWS V14.01,2013-08-04 07:02:00,
2013-08-04 00:07:00,63.0,46.6,-100.00,North,-999,-999.0,-999.0,55,-99.99,,---,-99.99,VWS V14.01,2013-08-04 07:07:00,
2013-08-04 00:12:00,62.6,46.2,-100.00,North,-999,-999.0,-999.0,55,-99.99,,---,-99.99,VWS V14.01,2013-08-04 07:12:00,
2013-08-04 00:17:00,62.4,46.1,-100.00,North,-999,-999.0,-999.0,55,-99.99,,---,-99.99,VWS V14.01,2013-08-04 07:17:00,
2013-08-04 00:22:00,62.2,46.4,-100.00,North,-999,-999.0,-999.0,56,-99.99,,---,-99.99,VWS V14.01,2013-08-04 07:22:00,
2013-08-04 00:27:00,62.2,46.4,-100.00,North,-999,-999.0,-999.0,56,-99.99,,---,-99.99,VWS V14.01,2013-08-04 07:27:00,
2013-08-04 00:32:00,62.2,46.4,-100.00,North,-999,-999.0,-999.0,56,-99.99,,---,-99.99,VWS V14.01,2013-08-04 07:32:00,
2013-08-04 00:37:00,62.1,46.2,-100.00,North,-999,-999.0,-999.0,56,-99.99,,---,-99.99,VWS V14.01,2013-08-04 07:37:00,
2013-08-04 00:42:00,61.9,46.5,-100.00,North,-999,-999.0,-999.0,57,-99.99,,---,-99.99,VWS V14.01,2013-08-04 07:42:00,
2013-08-04 00:47:00,61.7,46.3,-100.00,North,-999,-999.0,-999.0,57,-99.99,,---,-99.99,VWS V14.01,2013-08-04 07:47:00,
2013-08-04 00:52:00,61.5,46.2,-100.00,North,-999,-999.0,-999.0,57,-99.99,,---,-99.99,VWS V14.01,2013-08-04 07:52:00,
2013-08-04 00:57:00,61.5,46.2,-100.00,North,-999,-999.0,-999.0,57,-99.99,,---,-99.99,VWS V14.01,2013-08-04 07:57:00,
2013-08-04 01:02:00,61.3,46.0,-100.00,North,-999,-999.0,-999.0,57,-99.99,,---,-99.99,VWS V14.01,2013-08-04 08:02:00,
2013-08-04 01:11:00,61.0,46.1,-100.00,North,-999,-999.0,-999.0,58,-99.99,,---,-99.99,VWS V14.01,2013-08-04 08:11:00,
2013-08-04 01:17:00,61.0,46.1,-100.00,North,-999,-999.0,-999.0,58,-99.99,,---,-99.99,VWS V14.01,2013-08-04 08:17:00,
2013-08-04 01:22:00,60.6,46.2,-100.00,North,-999,-999.0,-999.0,59,-99.99,,---,-99.99,VWS V14.01,2013-08-04 08:22:00,
2013-08-04 01:28:00,60.4,46.1,-100.00,North,-999,-999.0,-999.0,59,-99.99,,---,-99.99,VWS V14.01,2013-08-04 08:28:00,
2013-08-04 01:32:00,60.4,46.1,-100.00,North,-999,-999.0,-999.0,59,-99.99,,---,-99.99,VWS V14.01,2013-08-04 08:32:00,
2013-08-04 01:39:00,60.3,46.3,-100.00,North,-999,-999.0,-999.0,60,-99.99,,---,-99.99,VWS V14.01,2013-08-04 08:39:00,
2013-08-04 01:44:00,60.1,46.2,-100.00,North,-999,-999.0,-999.0,60,-99.99,,---,-99.99,VWS V14.01,2013-08-04 08:44:00,
2013-08-04 01:49:00,60.1,46.2,-100.00,North,-999,-999.0,-999.0,60,-99.99,,---,-99.99,VWS V14.01,2013-08-04 08:49:00,
2013-08-04 01:53:00,60.1,46.2,-100.00,North,-999,-999.0,-999.0,60,-99.99,,---,-99.99,VWS V14.01,2013-08-04 08:53:00,
2013-08-04 01:59:00,59.9,46.4,-100.00,North,-999,-999.0,-999.0,61,-99.99,,---,-99.99,VWS V14.01,2013-08-04 08:59:00,
2013-08-04 02:11:00,59.7,46.3,-100.00,North,-999,-999.0,-999.0,61,-99.99,,---,-99.99,VWS V14.01,2013-08-04 09:11:00,
2013-08-04 02:16:00,59.7,46.7,-100.00,North,-999,-999.0,-999.0,62,-99.99,,---,-99.99,VWS V14.01,2013-08-04 09:16:00,
2013-08-04 02:21:00,59.7,46.7,-100.00,North,-999,-999.0,-999.0,62,-99.99,,---,-99.99,VWS V14.01,2013-08-04 09:21:00,
2013-08-04 02:28:00,59.7,46.7,-100.00,North,-999,-999.0,-999.0,62,-99.99,,---,-99.99,VWS V14.01,2013-08-04 09:28:00,
2013-08-04 02:33:00,59.7,46.7,-100.00,North,-999,-999.0,-999.0,62,-99.99,,---,-99.99,VWS V14.01,2013-08-04 09:33:00,
2013-08-04 02:38:00,59.5,47.0,-100.00,North,-999,-999.0,-999.0,63,-99.99,,---,-99.99,VWS V14.01,2013-08-04 09:38:00,
2013-08-04 02:44:00,59.5,47.0,-100.00,North,-999,-999.0,-999.0,63,-99.99,,---,-99.99,VWS V14.01,2013-08-04 09:44:00,
2013-08-04 02:49:00,59.4,46.8,-100.00,North,-999,-999.0,-999.0,63,-99.99,,---,-99.99,VWS V14.01,2013-08-04 09:49:00,
2013-08-04 02:53:00,59.4,46.8,-100.00,North,-999,-999.0,-999.0,63,-99.99,,---,-99.99,VWS V14.01,2013-08-04 09:53:00,
2013-08-04 02:59:00,59.4,47.2,-100.00,North,-999,-999.0,-999.0,64,-99.99,,---,-99.99,VWS V14.01,2013-08-04 09:59:00,
2013-08-04 03:23:00,59.2,47.4,-100.00,North,-999,-999.0,-999.0,65,-99.99,,---,-99.99,VWS V14.01,2013-08-04 10:23:00,
2013-08-04 03:28:00,59.2,47.4,-100.00,North,-999,-999.0,-999.0,65,-99.99,,---,-99.99,VWS V14.01,2013-08-04 10:28:00,
2013-08-04 03:33:00,59.2,47.4,-100.00,North,-999,-999.0,-999.0,65,-99.99,,---,-99.99,VWS V14.01,2013-08-04 10:33:00,
2013-08-04 03:38:00,59.2,47.4,-100.00,North,-999,-999.0,-999.0,65,-99.99,,---,-99.99,VWS V14.01,2013-08-04 10:38:00,
2013-08-04 03:43:00,59.2,47.4,-100.00,North,-999,-999.0,-999.0,65,-99.99,,---,-99.99,VWS V14.01,2013-08-04 10:43:00,
2013-08-04 03:48:00,59.4,47.6,-100.00,North,-999,-999.0,-999.0,65,-99.99,,---,-99.99,VWS V14.01,2013-08-04 10:48:00,
2013-08-04 03:53:00,59.2,47.8,-100.00,North,-999,-999.0,-999.0,66,-99.99,,---,-99.99,VWS V14.01,2013-08-04 10:53:00,
2013-08-04 03:58:00,59.2,47.8,-100.00,North,-999,-999.0,-999.0,66,-99.99,,---,-99.99,VWS V14.01,2013-08-04 10:58:00,
2013-08-04 04:03:00,59.2,47.8,-100.00,North,-999,-999.0,-999.0,66,-99.99,,---,-99.99,VWS V14.01,2013-08-04 11:03:00,
2013-08-04 04:08:00,59.2,47.8,-100.00,North,-999,-999.0,-999.0,66,-99.99,,---,-99.99,VWS V14.01,2013-08-04 11:08:00,
2013-08-04 04:13:00,59.2,47.8,-100.00,North,-999,-999.0,-999.0,66,-99.99,,---,-99.99,VWS V14.01,2013-08-04 11:13:00,
2013-08-04 04:18:00,59.2,47.8,-100.00,North,-999,-999.0,-999.0,66,-99.99,,---,-99.99,VWS V14.01,2013-08-04 11:18:00,
2013-08-04 04:23:00,59.2,47.8,-100.00,North,-999,-999.0,-999.0,66,-99.99,,---,-99.99,VWS V14.01,2013-08-04 11:23:00,
2013-08-04 04:28:00,59.4,48.0,-100.00,North,-999,-999.0,-999.0,66,-99.99,,---,-99.99,VWS V14.01,2013-08-04 11:28:00,
2013-08-04 04:33:00,59.4,48.4,-100.00,North,-999,-999.0,-999.0,67,-99.99,,---,-99.99,VWS V14.01,2013-08-04 11:33:00,
2013-08-04 04:39:00,59.4,48.4,-100.00,North,-999,-999.0,-999.0,67,-99.99,,---,-99.99,VWS V14.01,2013-08-04 11:39:00,
2013-08-04 04:45:00,59.2,48.2,-100.00,North,-999,-999.0,-999.0,67,-99.99,,---,-99.99,VWS V14.01,2013-08-04 11:45:00,
2013-08-04 04:50:00,59.2,48.2,-100.00,North,-999,-999.0,-999.0,67,-99.99,,---,-99.99,VWS V14.01,2013-08-04 11:50:00,
2013-08-04 04:55:00,59.0,48.1,-100.00,North,-999,-999.0,-999.0,67,-99.99,,---,-99.99,VWS V14.01,2013-08-04 11:55:00,
2013-08-04 05:00:00,59.0,48.1,-100.00,North,-999,-999.0,-999.0,67,-99.99,,---,-99.99,VWS V14.01,2013-08-04 12:00:00,
2013-08-04 05:04:00,59.0,48.1,-100.00,North,-999,-999.0,-999.0,67,-99.99,,---,-99.99,VWS V14.01,2013-08-04 12:04:00,
2013-08-04 05:10:00,59.0,48.1,-100.00,North,-999,-999.0,-999.0,67,-99.99,,---,-99.99,VWS V14.01,2013-08-04 12:10:00,
2013-08-04 05:15:00,59.0,48.1,-100.00,North,-999,-999.0,-999.0,67,-99.99,,---,-99.99,VWS V14.01,2013-08-04 12:15:00,
2013-08-04 05:19:00,59.0,48.1,-100.00,North,-999,-999.0,-999.0,67,-99.99,,---,-99.99,VWS V14.01,2013-08-04 12:19:00,
2013-08-04 05:24:00,59.0,48.1,-100.00,North,-999,-999.0,-999.0,67,-99.99,,---,-99.99,VWS V14.01,2013-08-04 12:24:00,
2013-08-04 05:30:00,59.0,48.5,-100.00,North,-999,-999.0,-999.0,68,-99.99,,---,-99.99,VWS V14.01,2013-08-04 12:30:00,
2013-08-04 05:34:00,59.0,48.5,-100.00,North,-999,-999.0,-999.0,68,-99.99,,---,-99.99,VWS V14.01,2013-08-04 12:34:00,
2013-08-04 05:41:00,59.0,48.5,-100.00,North,-999,-999.0,-999.0,68,-99.99,,---,-99.99,VWS V14.01,2013-08-04 12:41:00,
2013-08-04 05:46:00,59.0,48.5,-100.00,North,-999,-999.0,-999.0,68,-99.99,,---,-99.99,VWS V14.01,2013-08-04 12:46:00,
2013-08-04 05:51:00,59.0,48.5,-100.00,North,-999,-999.0,-999.0,68,-99.99,,---,-99.99,VWS V14.01,2013-08-04 12:51:00,
2013-08-04 05:58:00,58.8,48.7,-100.00,North,-999,-999.0,-999.0,69,-99.99,,---,-99.99,VWS V14.01,2013-08-04 12:58:00,
2013-08-04 06:03:00,58.8,48.7,-100.00,North,-999,-999.0,-999.0,69,-99.99,,---,-99.99,VWS V14.01,2013-08-04 13:03:00,
2013-08-04 06:07:00,58.8,48.7,-100.00,North,-999,-999.0,-999.0,69,-99.99,,---,-99.99,VWS V14.01,2013-08-04 13:07:00,
2013-08-04 06:13:00,58.8,48.7,-100.00,North,-999,-999.0,-999.0,69,-99.99,,---,-99.99,VWS V14.01,2013-08-04 13:13:00,
2013-08-04 06:18:00,58.8,48.7,-100.00,North,-999,-999.0,-999.0,69,-99.99,,---,-99.99,VWS V14.01,2013-08-04 13:18:00,
2013-08-04 06:23:00,58.8,48.7,-100.00,North,-999,-999.0,-999.0,69,-99.99,,---,-99.99,VWS V14.01,2013-08-04 13:23:00,
2013-08-04 06:28:00,58.8,48.7,-100.00,North,-999,-999.0,-999.0,69,-99.99,,---,-99.99,VWS V14.01,2013-08-04 13:28:00,
2013-08-04 06:33:00,59.0,48.9,-100.00,North,-999,-999.0,-999.0,69,-99.99,,---,-99.99,VWS V14.01,2013-08-04 13:33:00,
2013-08-04 06:38:00,59.0,48.9,-100.00,North,-999,-999.0,-999.0,69,-99.99,,---,-99.99,VWS V14.01,2013-08-04 13:38:00,
2013-08-04 06:43:00,59.0,48.9,-100.00,North,-999,-999.0,-999.0,69,-99.99,,---,-99.99,VWS V14.01,2013-08-04 13:43:00,
2013-08-04 06:48:00,59.0,48.9,-100.00,North,-999,-999.0,-999.0,69,-99.99,,---,-99.99,VWS V14.01,2013-08-04 13:48:00,
2013-08-04 06:53:00,59.2,49.0,-100.00,North,-999,-999.0,-999.0,69,-99.99,,---,-99.99,VWS V14.01,2013-08-04 13:53:00,
2013-08-04 06:58:00,59.2,49.0,-100.00,North,-999,-999.0,-999.0,69,-99.99,,---,-99.99,VWS V14.01,2013-08-04 13:58:00,
2013-08-04 07:03:00,59.2,49.0,-100.00,North,-999,-999.0,-999.0,69,-99.99,,---,-99.99,VWS V14.01,2013-08-04 14:03:00,
2013-08-04 07:08:00,59.2,49.0,-100.00,North,-999,-999.0,-999.0,69,-99.99,,---,-99.99,VWS V14.01,2013-08-04 14:08:00,
2013-08-04 07:13:00,59.2,49.0,-100.00,North,-999,-999.0,-999.0,69,-99.99,,---,-99.99,VWS V14.01,2013-08-04 14:13:00,
2013-08-04 07:18:00,59.2,49.0,-100.00,North,-999,-999.0,-999.0,69,-99.99,,---,-99.99,VWS V14.01,2013-08-04 14:18:00,
2013-08-04 07:23:00,59.2,49.0,-100.00,North,-999,-999.0,-999.0,69,-99.99,,---,-99.99,VWS V14.01,2013-08-04 14:23:00,
2013-08-04 07:28:00,59.2,49.0,-100.00,North,-999,-999.0,-999.0,69,-99.99,,---,-99.99,VWS V14.01,2013-08-04 14:28:00,
2013-08-04 07:33:00,59.2,49.0,-100.00,North,-999,-999.0,-999.0,69,-99.99,,---,-99.99,VWS V14.01,2013-08-04 14:33:00,
2013-08-04 07:38:00,59.2,49.0,-100.00,North,-999,-999.0,-999.0,69,-99.99,,---,-99.99,VWS V14.01,2013-08-04 14:38:00,
2013-08-04 07:43:00,59.2,49.0,-100.00,North,-999,-999.0,-999.0,69,-99.99,,---,-99.99,VWS V14.01,2013-08-04 14:43:00,
2013-08-04 07:48:00,59.2,49.4,-100.00,North,-999,-999.0,-999.0,70,-99.99,,---,-99.99,VWS V14.01,2013-08-04 14:48:00,
2013-08-04 07:53:00,59.2,49.4,-100.00,North,-999,-999.0,-999.0,70,-99.99,,---,-99.99,VWS V14.01,2013-08-04 14:53:00,
2013-08-04 07:58:00,59.2,49.4,-100.00,North,-999,-999.0,-999.0,70,-99.99,,---,-99.99,VWS V14.01,2013-08-04 14:58:00,
2013-08-04 08:03:00,59.2,49.4,-100.00,North,-999,-999.0,-999.0,70,-99.99,,---,-99.99,VWS V14.01,2013-08-04 15:03:00,
2013-08-04 08:08:00,59.2,49.4,-100.00,North,-999,-999.0,-999.0,70,-99.99,,---,-99.99,VWS V14.01,2013-08-04 15:08:00,
2013-08-04 08:13:00,59.4,49.6,-100.00,North,-999,-999.0,-999.0,70,-99.99,,---,-99.99,VWS V14.01,2013-08-04 15:13:00,
2013-08-04 08:18:00,59.4,49.6,-100.00,North,-999,-999.0,-999.0,70,-99.99,,---,-99.99,VWS V14.01,2013-08-04 15:18:00,
2013-08-04 08:23:00,59.4,49.6,-100.00,North,-999,-999.0,-999.0,70,-99.99,,---,-99.99,VWS V14.01,2013-08-04 15:23:00,
2013-08-04 08:28:00,59.4,49.6,-100.00,North,-999,-999.0,-999.0,70,-99.99,,---,-99.99,VWS V14.01,2013-08-04 15:28:00,
2013-08-04 08:33:00,59.4,49.6,-100.00,North,-999,-999.0,-999.0,70,-99.99,,---,-99.99,VWS V14.01,2013-08-04 15:33:00,
2013-08-04 08:38:00,59.5,49.8,-100.00,North,-999,-999.0,-999.0,70,-99.99,,---,-99.99,VWS V14.01,2013-08-04 15:38:00,
2013-08-04 08:43:00,59.7,49.9,-100.00,North,-999,-999.0,-999.0,70,-99.99,,---,-99.99,VWS V14.01,2013-08-04 15:43:00,
2013-08-04 08:48:00,59.9,50.1,-100.00,North,-999,-999.0,-999.0,70,-99.99,,---,-99.99,VWS V14.01,2013-08-04 15:48:00,
2013-08-04 08:53:00,60.1,50.3,-100.00,North,-999,-999.0,-999.0,70,-99.99,,---,-99.99,VWS V14.01,2013-08-04 15:53:00,
2013-08-04 08:58:00,60.1,50.3,-100.00,North,-999,-999.0,-999.0,70,-99.99,,---,-99.99,VWS V14.01,2013-08-04 15:58:00,
2013-08-04 09:03:00,60.3,50.5,-100.00,North,-999,-999.0,-999.0,70,-99.99,,---,-99.99,VWS V14.01,2013-08-04 16:03:00,
2013-08-04 09:11:00,60.6,50.8,-100.00,North,-999,-999.0,-999.0,70,-99.99,,---,-99.99,VWS V14.01,2013-08-04 16:11:00,
2013-08-04 09:16:00,61.0,50.8,-100.00,North,-999,-999.0,-999.0,69,-99.99,,---,-99.99,VWS V14.01,2013-08-04 16:16:00,
2013-08-04 09:21:00,61.2,50.9,-100.00,North,-999,-999.0,-999.0,69,-99.99,,---,-99.99,VWS V14.01,2013-08-04 16:21:00,
2013-08-04 09:26:00,61.5,51.3,-100.00,North,-999,-999.0,-999.0,69,-99.99,,---,-99.99,VWS V14.01,2013-08-04 16:26:00,
2013-08-04 09:32:00,61.9,51.6,-100.00,North,-999,-999.0,-999.0,69,-99.99,,---,-99.99,VWS V14.01,2013-08-04 16:32:00,
2013-08-04 09:37:00,62.1,51.8,-100.00,North,-999,-999.0,-999.0,69,-99.99,,---,-99.99,VWS V14.01,2013-08-04 16:37:00,
2013-08-04 09:42:00,62.6,52.3,-100.00,North,-999,-999.0,-999.0,69,-99.99,,---,-99.99,VWS V14.01,2013-08-04 16:42:00,
2013-08-04 09:47:00,63.1,52.4,-100.00,North,-999,-999.0,-999.0,68,-99.99,,---,-99.99,VWS V14.01,2013-08-04 16:47:00,
2013-08-04 09:52:00,63.9,53.1,-100.00,North,-999,-999.0,-999.0,68,-99.99,,---,-99.99,VWS V14.01,2013-08-04 16:52:00,
2013-08-04 09:57:00,64.8,54.0,-100.00,North,-999,-999.0,-999.0,68,-99.99,,---,-99.99,VWS V14.01,2013-08-04 16:57:00,
2013-08-04 10:02:00,65.3,54.1,-100.00,North,-999,-999.0,-999.0,67,-99.99,,---,-99.99,VWS V14.01,2013-08-04 17:02:00,
2013-08-04 10:07:00,65.7,54.4,-100.00,North,-999,-999.0,-999.0,67,-99.99,,---,-99.99,VWS V14.01,2013-08-04 17:07:00,
2013-08-04 10:12:00,66.2,54.5,-100.00,North,-999,-999.0,-999.0,66,-99.99,,---,-99.99,VWS V14.01,2013-08-04 17:12:00,
2013-08-04 10:17:00,66.6,54.9,-100.00,North,-999,-999.0,-999.0,66,-99.99,,---,-99.99,VWS V14.01,2013-08-04 17:17:00,
2013-08-04 10:22:00,67.1,55.4,-100.00,North,-999,-999.0,-999.0,66,-99.99,,---,-99.99,VWS V14.01,2013-08-04 17:22:00,
2013-08-04 10:27:00,67.6,55.5,-100.00,North,-999,-999.0,-999.0,65,-99.99,,---,-99.99,VWS V14.01,2013-08-04 17:27:00,
2013-08-04 10:32:00,68.0,55.4,-100.00,North,-999,-999.0,-999.0,64,-99.99,,---,-99.99,VWS V14.01,2013-08-04 17:32:00,
2013-08-04 10:37:00,68.2,55.5,-100.00,North,-999,-999.0,-999.0,64,-99.99,,---,-99.99,VWS V14.01,2013-08-04 17:37:00,
2013-08-04 10:42:00,68.5,55.9,-100.00,North,-999,-999.0,-999.0,64,-99.99,,---,-99.99,VWS V14.01,2013-08-04 17:42:00,
2013-08-04 10:47:00,68.9,55.8,-100.00,North,-999,-999.0,-999.0,63,-99.99,,---,-99.99,VWS V14.01,2013-08-04 17:47:00,
2013-08-04 10:52:00,69.1,56.0,-100.00,North,-999,-999.0,-999.0,63,-99.99,,---,-99.99,VWS V14.01,2013-08-04 17:52:00,
2013-08-04 10:57:00,69.4,56.3,-100.00,North,-999,-999.0,-999.0,63,-99.99,,---,-99.99,VWS V14.01,2013-08-04 17:57:00,
2013-08-04 11:02:00,69.6,56.5,-100.00,North,-999,-999.0,-999.0,63,-99.99,,---,-99.99,VWS V14.01,2013-08-04 18:02:00,
2013-08-04 11:07:00,69.8,56.2,-100.00,North,-999,-999.0,-999.0,62,-99.99,,---,-99.99,VWS V14.01,2013-08-04 18:07:00,
2013-08-04 11:13:00,70.2,56.1,-100.00,North,-999,-999.0,-999.0,61,-99.99,,---,-99.99,VWS V14.01,2013-08-04 18:13:00,
2013-08-04 11:18:00,70.5,56.4,-100.00,North,-999,-999.0,-999.0,61,-99.99,,---,-99.99,VWS V14.01,2013-08-04 18:18:00,
2013-08-04 11:24:00,70.7,56.6,-100.00,North,-999,-999.0,-999.0,61,-99.99,,---,-99.99,VWS V14.01,2013-08-04 18:24:00,
2013-08-04 11:29:00,70.9,56.3,-100.00,North,-999,-999.0,-999.0,60,-99.99,,---,-99.99,VWS V14.01,2013-08-04 18:29:00,
2013-08-04 11:35:00,71.1,56.5,-100.00,North,-999,-999.0,-999.0,60,-99.99,,---,-99.99,VWS V14.01,2013-08-04 18:35:00,
2013-08-04 11:41:00,71.2,56.7,-100.00,North,-999,-999.0,-999.0,60,-99.99,,---,-99.99,VWS V14.01,2013-08-04 18:41:00,
2013-08-04 11:46:00,71.6,56.5,-100.00,North,-999,-999.0,-999.0,59,-99.99,,---,-99.99,VWS V14.01,2013-08-04 18:46:00,
2013-08-04 11:51:00,71.8,56.7,-100.00,North,-999,-999.0,-999.0,59,-99.99,,---,-99.99,VWS V14.01,2013-08-04 18:51:00,
2013-08-04 11:57:00,72.0,56.4,-100.00,North,-999,-999.0,-999.0,58,-99.99,,---,-99.99,VWS V14.01,2013-08-04 18:57:00,
2013-08-04 12:02:00,72.1,56.6,-100.00,North,-999,-999.0,-999.0,58,-99.99,,---,-99.99,VWS V14.01,2013-08-04 19:02:00,
2013-08-04 12:07:00,72.3,56.7,-100.00,North,-999,-999.0,-999.0,58,-99.99,,---,-99.99,VWS V14.01,2013-08-04 19:07:00,
2013-08-04 12:09:00,72.3,56.2,-100.00,North,-999,-999.0,-999.0,57,-99.99,,---,-99.99,VWS V14.01,2013-08-04 19:09:00,
2013-08-04 12:13:00,72.7,56.6,-100.00,North,-999,-999.0,-999.0,57,-99.99,,---,-99.99,VWS V14.01,2013-08-04 19:13:00,
2013-08-04 12:20:00,73.0,56.9,-100.00,North,-999,-999.0,-999.0,57,-99.99,,---,-99.99,VWS V14.01,2013-08-04 19:20:00,
2013-08-04 12:25:00,73.4,56.8,-100.00,North,-999,-999.0,-999.0,56,-99.99,,---,-99.99,VWS V14.01,2013-08-04 19:25:00,
2013-08-04 12:30:00,73.8,56.6,-100.00,North,-999,-999.0,-999.0,55,-99.99,,---,-99.99,VWS V14.01,2013-08-04 19:30:00,
2013-08-04 12:35:00,73.9,56.8,-100.00,North,-999,-999.0,-999.0,55,-99.99,,---,-99.99,VWS V14.01,2013-08-04 19:35:00,
2013-08-04 12:41:00,74.5,57.3,-100.00,North,-999,-999.0,-999.0,55,-99.99,,---,-99.99,VWS V14.01,2013-08-04 19:41:00,
2013-08-04 12:47:00,74.8,57.1,-100.00,North,-999,-999.0,-999.0,54,-99.99,,---,-99.99,VWS V14.01,2013-08-04 19:47:00,
2013-08-04 12:51:00,75.2,57.4,-100.00,North,-999,-999.0,-999.0,54,-99.99,,---,-99.99,VWS V14.01,2013-08-04 19:51:00,
2013-08-04 12:57:00,75.4,57.1,-100.00,North,-999,-999.0,-999.0,53,-99.99,,---,-99.99,VWS V14.01,2013-08-04 19:57:00,
2013-08-04 13:02:00,75.7,57.4,-100.00,North,-999,-999.0,-999.0,53,-99.99,,---,-99.99,VWS V14.01,2013-08-04 20:02:00,
2013-08-04 13:07:00,76.1,57.2,-100.00,North,-999,-999.0,-999.0,52,-99.99,,---,-99.99,VWS V14.01,2013-08-04 20:07:00,
2013-08-04 13:12:00,76.3,57.4,-100.00,North,-999,-999.0,-999.0,52,-99.99,,---,-99.99,VWS V14.01,2013-08-04 20:12:00,
2013-08-04 13:17:00,76.6,57.7,-100.00,North,-999,-999.0,-999.0,52,-99.99,,---,-99.99,VWS V14.01,2013-08-04 20:17:00,
2013-08-04 13:23:00,77.0,57.0,-100.00,North,-999,-999.0,-999.0,50,-99.99,,---,-99.99,VWS V14.01,2013-08-04 20:23:00,
2013-08-04 13:28:00,77.2,57.1,-100.00,North,-999,-999.0,-999.0,50,-99.99,,---,-99.99,VWS V14.01,2013-08-04 20:28:00,
2013-08-04 13:33:00,77.2,57.1,-100.00,North,-999,-999.0,-999.0,50,-99.99,,---,-99.99,VWS V14.01,2013-08-04 20:33:00,
2013-08-04 13:37:00,77.5,57.5,-100.00,North,-999,-999.0,-999.0,50,-99.99,,---,-99.99,VWS V14.01,2013-08-04 20:37:00,
2013-08-04 13:43:00,77.9,57.2,-100.00,North,-999,-999.0,-999.0,49,-99.99,,---,-99.99,VWS V14.01,2013-08-04 20:43:00,
2013-08-04 13:48:00,78.1,57.4,-100.00,North,-999,-999.0,-999.0,49,-99.99,,---,-99.99,VWS V14.01,2013-08-04 20:48:00,
2013-08-04 13:53:00,78.1,57.4,-100.00,North,-999,-999.0,-999.0,49,-99.99,,---,-99.99,VWS V14.01,2013-08-04 20:53:00,
2013-08-04 13:57:00,78.4,57.1,-100.00,North,-999,-999.0,-999.0,48,-99.99,,---,-99.99,VWS V14.01,2013-08-04 20:57:00,
2013-08-04 14:02:00,78.6,57.3,-100.00,North,-999,-999.0,-999.0,48,-99.99,,---,-99.99,VWS V14.01,2013-08-04 21:02:00,
2013-08-04 14:08:00,78.8,56.9,-100.00,North,-999,-999.0,-999.0,47,-99.99,,---,-99.99,VWS V14.01,2013-08-04 21:08:00,
2013-08-04 14:13:00,79.0,57.0,-100.00,North,-999,-999.0,-999.0,47,-99.99,,---,-99.99,VWS V14.01,2013-08-04 21:13:00,
2013-08-04 14:18:00,79.2,57.2,-100.00,North,-999,-999.0,-999.0,47,-99.99,,---,-99.99,VWS V14.01,2013-08-04 21:18:00,
2013-08-04 14:23:00,79.3,57.4,-100.00,North,-999,-999.0,-999.0,47,-99.99,,---,-99.99,VWS V14.01,2013-08-04 21:23:00,
2013-08-04 14:28:00,79.3,56.8,-100.00,North,-999,-999.0,-999.0,46,-99.99,,---,-99.99,VWS V14.01,2013-08-04 21:28:00,
2013-08-04 14:33:00,79.3,56.8,-100.00,North,-999,-999.0,-999.0,46,-99.99,,---,-99.99,VWS V14.01,2013-08-04 21:33:00,
2013-08-04 14:37:00,79.5,57.0,-100.00,North,-999,-999.0,-999.0,46,-99.99,,---,-99.99,VWS V14.01,2013-08-04 21:37:00,
2013-08-04 14:42:00,79.5,57.0,-100.00,North,-999,-999.0,-999.0,46,-99.99,,---,-99.99,VWS V14.01,2013-08-04 21:42:00,
2013-08-04 14:48:00,79.7,57.1,-100.00,North,-999,-999.0,-999.0,46,-99.99,,---,-99.99,VWS V14.01,2013-08-04 21:48:00,
2013-08-04 14:53:00,79.7,57.1,-100.00,North,-999,-999.0,-999.0,46,-99.99,,---,-99.99,VWS V14.01,2013-08-04 21:53:00,
2013-08-04 14:54:00,79.7,57.1,-100.00,North,-999,-999.0,-999.0,46,-99.99,,---,-99.99,VWS V14.01,2013-08-04 21:54:00,
2013-08-04 15:00:00,79.9,56.7,-100.00,North,-999,-999.0,-999.0,45,-99.99,,---,-99.99,VWS V14.01,2013-08-04 22:00:00,
2013-08-04 15:11:00,80.2,57.0,-100.00,North,-999,-999.0,-999.0,45,-99.99,,---,-99.99,VWS V14.01,2013-08-04 22:11:00,
2013-08-04 15:16:00,80.2,57.0,-100.00,North,-999,-999.0,-999.0,45,-99.99,,---,-99.99,VWS V14.01,2013-08-04 22:16:00,
2013-08-04 15:21:00,80.2,57.0,-100.00,North,-999,-999.0,-999.0,45,-99.99,,---,-99.99,VWS V14.01,2013-08-04 22:21:00,
2013-08-04 15:26:00,80.1,56.2,-100.00,North,-999,-999.0,-999.0,44,-99.99,,---,-99.99,VWS V14.01,2013-08-04 22:26:00,
2013-08-04 15:31:00,80.1,56.2,-100.00,North,-999,-999.0,-999.0,44,-99.99,,---,-99.99,VWS V14.01,2013-08-04 22:31:00,
2013-08-04 15:36:00,80.1,56.2,-100.00,North,-999,-999.0,-999.0,44,-99.99,,---,-99.99,VWS V14.01,2013-08-04 22:36:00,
2013-08-04 15:41:00,80.1,56.2,-100.00,North,-999,-999.0,-999.0,44,-99.99,,---,-99.99,VWS V14.01,2013-08-04 22:41:00,
2013-08-04 15:46:00,80.1,56.2,-100.00,North,-999,-999.0,-999.0,44,-99.99,,---,-99.99,VWS V14.01,2013-08-04 22:46:00,
2013-08-04 15:51:00,79.9,56.0,-100.00,North,-999,-999.0,-999.0,44,-99.99,,---,-99.99,VWS V14.01,2013-08-04 22:51:00,
2013-08-04 15:58:00,79.9,56.0,-100.00,North,-999,-999.0,-999.0,44,-99.99,,---,-99.99,VWS V14.01,2013-08-04 22:58:00,
2013-08-04 16:03:00,79.7,55.9,-100.00,North,-999,-999.0,-999.0,44,-99.99,,---,-99.99,VWS V14.01,2013-08-04 23:03:00,
2013-08-04 16:08:00,79.5,55.7,-100.00,North,-999,-999.0,-999.0,44,-99.99,,---,-99.99,VWS V14.01,2013-08-04 23:08:00,
2013-08-04 16:14:00,79.2,54.8,-100.00,North,-999,-999.0,-999.0,43,-99.99,,---,-99.99,VWS V14.01,2013-08-04 23:14:00,
2013-08-04 16:19:00,79.0,54.6,-100.00,North,-999,-999.0,-999.0,43,-99.99,,---,-99.99,VWS V14.01,2013-08-04 23:19:00,
2013-08-04 16:24:00,78.8,54.4,-100.00,North,-999,-999.0,-999.0,43,-99.99,,---,-99.99,VWS V14.01,2013-08-04 23:24:00,
2013-08-04 16:30:00,78.8,54.4,-100.00,North,-999,-999.0,-999.0,43,-99.99,,---,-99.99,VWS V14.01,2013-08-04 23:30:00,
2013-08-04 16:34:00,78.4,54.7,-100.00,North,-999,-999.0,-999.0,44,-99.99,,---,-99.99,VWS V14.01,2013-08-04 23:34:00,
2013-08-04 16:41:00,78.1,54.4,-100.00,North,-999,-999.0,-999.0,44,-99.99,,---,-99.99,VWS V14.01,2013-08-04 23:41:00,
2013-08-04 16:46:00,77.9,53.6,-100.00,North,-999,-999.0,-999.0,43,-99.99,,---,-99.99,VWS V14.01,2013-08-04 23:46:00,
2013-08-04 16:51:00,77.5,53.9,-100.00,North,-999,-999.0,-999.0,44,-99.99,,---,-99.99,VWS V14.01,2013-08-04 23:51:00,
2013-08-04 16:56:00,77.2,53.0,-100.00,North,-999,-999.0,-999.0,43,-99.99,,---,-99.99,VWS V14.01,2013-08-04 23:56:00,
2013-08-04 17:01:00,77.0,52.8,-100.00,North,-999,-999.0,-999.0,43,-99.99,,---,-99.99,VWS V14.01,2013-08-05 00:01:00,
2013-08-04 17:06:00,76.6,53.1,-100.00,North,-999,-999.0,-999.0,44,-99.99,,---,-99.99,VWS V14.01,2013-08-05 00:06:00,
2013-08-04 17:11:00,76.5,53.0,-100.00,North,-999,-999.0,-999.0,44,-99.99,,---,-99.99,VWS V14.01,2013-08-05 00:11:00,
2013-08-04 17:16:00,76.3,52.8,-100.00,North,-999,-999.0,-999.0,44,-99.99,,---,-99.99,VWS V14.01,2013-08-05 00:16:00,
2013-08-04 17:21:00,76.1,52.6,-100.00,North,-999,-999.0,-999.0,44,-99.99,,---,-99.99,VWS V14.01,2013-08-05 00:21:00,
2013-08-04 17:26:00,75.9,52.5,-100.00,North,-999,-999.0,-999.0,44,-99.99,,---,-99.99,VWS V14.01,2013-08-05 00:26:00,
2013-08-04 17:31:00,75.6,52.1,-100.00,North,-999,-999.0,-999.0,44,-99.99,,---,-99.99,VWS V14.01,2013-08-05 00:31:00,
2013-08-04 17:36:00,75.2,51.8,-100.00,North,-999,-999.0,-999.0,44,-99.99,,---,-99.99,VWS V14.01,2013-08-05 00:36:00,
2013-08-04 17:42:00,74.8,51.5,-100.00,North,-999,-999.0,-999.0,44,-99.99,,---,-99.99,VWS V14.01,2013-08-05 00:42:00,
2013-08-04 17:47:00,74.3,51.0,-100.00,North,-999,-999.0,-999.0,44,-99.99,,---,-99.99,VWS V14.01,2013-08-05 00:47:00,
2013-08-04 17:51:00,73.9,50.7,-100.00,North,-999,-999.0,-999.0,44,-99.99,,---,-99.99,VWS V14.01,2013-08-05 00:51:00,
2013-08-04 17:56:00,73.4,50.2,-100.00,North,-999,-999.0,-999.0,44,-99.99,,---,-99.99,VWS V14.01,2013-08-05 00:56:00,
2013-08-04 18:02:00,73.0,50.5,-100.00,North,-999,-999.0,-999.0,45,-99.99,,---,-99.99,VWS V14.01,2013-08-05 01:02:00,
2013-08-04 18:07:00,72.7,50.1,-100.00,North,-999,-999.0,-999.0,45,-99.99,,---,-99.99,VWS V14.01,2013-08-05 01:07:00,
2013-08-04 18:12:00,72.1,49.7,-100.00,North,-999,-999.0,-999.0,45,-99.99,,---,-99.99,VWS V14.01,2013-08-05 01:12:00,
2013-08-04 18:17:00,71.8,49.3,-100.00,North,-999,-999.0,-999.0,45,-99.99,,---,-99.99,VWS V14.01,2013-08-05 01:17:00,
2013-08-04 18:22:00,71.4,49.6,-100.00,North,-999,-999.0,-999.0,46,-99.99,,---,-99.99,VWS V14.01,2013-08-05 01:22:00,
2013-08-04 18:27:00,71.1,49.3,-100.00,North,-999,-999.0,-999.0,46,-99.99,,---,-99.99,VWS V14.01,2013-08-05 01:27:00,
2013-08-04 18:32:00,70.9,49.1,-100.00,North,-999,-999.0,-999.0,46,-99.99,,---,-99.99,VWS V14.01,2013-08-05 01:32:00,
2013-08-04 18:37:00,70.5,48.8,-100.00,North,-999,-999.0,-999.0,46,-99.99,,---,-99.99,VWS V14.01,2013-08-05 01:37:00,
2013-08-04 18:42:00,70.2,49.0,-100.00,North,-999,-999.0,-999.0,47,-99.99,,---,-99.99,VWS V14.01,2013-08-05 01:42:00,
2013-08-04 18:47:00,69.8,48.7,-100.00,North,-999,-999.0,-999.0,47,-99.99,,---,-99.99,VWS V14.01,2013-08-05 01:47:00,
2013-08-04 18:52:00,69.4,48.3,-100.00,North,-999,-999.0,-999.0,47,-99.99,,---,-99.99,VWS V14.01,2013-08-05 01:52:00,
2013-08-04 18:57:00,69.1,48.6,-100.00,North,-999,-999.0,-999.0,48,-99.99,,---,-99.99,VWS V14.01,2013-08-05 01:57:00,
2013-08-04 19:02:00,68.9,48.4,-100.00,North,-999,-999.0,-999.0,48,-99.99,,---,-99.99,VWS V14.01,2013-08-05 02:02:00,
2013-08-04 19:07:00,68.7,48.3,-100.00,North,-999,-999.0,-999.0,48,-99.99,,---,-99.99,VWS V14.01,2013-08-05 02:07:00,
2013-08-04 19:12:00,68.2,47.8,-100.00,North,-999,-999.0,-999.0,48,-99.99,,---,-99.99,VWS V14.01,2013-08-05 02:12:00,
2013-08-04 19:17:00,67.8,47.4,-100.00,North,-999,-999.0,-999.0,48,-99.99,,---,-99.99,VWS V14.01,2013-08-05 02:17:00,
2013-08-04 19:22:00,67.6,47.8,-100.00,North,-999,-999.0,-999.0,49,-99.99,,---,-99.99,VWS V14.01,2013-08-05 02:22:00,
2013-08-04 19:27:00,67.3,47.5,-100.00,North,-999,-999.0,-999.0,49,-99.99,,---,-99.99,VWS V14.01,2013-08-05 02:27:00,
2013-08-04 19:32:00,66.9,47.2,-100.00,North,-999,-999.0,-999.0,49,-99.99,,---,-99.99,VWS V14.01,2013-08-05 02:32:00,
2013-08-04 19:37:00,66.6,46.8,-100.00,North,-999,-999.0,-999.0,49,-99.99,,---,-99.99,VWS V14.01,2013-08-05 02:37:00,
2013-08-04 19:42:00,66.2,47.0,-100.00,North,-999,-999.0,-999.0,50,-99.99,,---,-99.99,VWS V14.01,2013-08-05 02:42:00,
2013-08-04 19:47:00,65.8,46.7,-100.00,North,-999,-999.0,-999.0,50,-99.99,,---,-99.99,VWS V14.01,2013-08-05 02:47:00,
2013-08-04 19:52:00,65.7,47.1,-100.00,North,-999,-999.0,-999.0,51,-99.99,,---,-99.99,VWS V14.01,2013-08-05 02:52:00,
2013-08-04 19:57:00,65.3,46.7,-100.00,North,-999,-999.0,-999.0,51,-99.99,,---,-99.99,VWS V14.01,2013-08-05 02:57:00,
2013-08-04 20:02:00,64.8,46.2,-100.00,North,-999,-999.0,-999.0,51,-99.99,,---,-99.99,VWS V14.01,2013-08-05 03:02:00,
2013-08-04 20:07:00,64.4,45.9,-100.00,North,-999,-999.0,-999.0,51,-99.99,,---,-99.99,VWS V14.01,2013-08-05 03:07:00,
2013-08-04 20:12:00,64.2,46.2,-100.00,North,-999,-999.0,-999.0,52,-99.99,,---,-99.99,VWS V14.01,2013-08-05 03:12:00,
2013-08-04 20:17:00,64.0,46.6,-100.00,North,-999,-999.0,-999.0,53,-99.99,,---,-99.99,VWS V14.01,2013-08-05 03:17:00,
2013-08-04 20:22:00,63.9,46.4,-100.00,North,-999,-999.0,-999.0,53,-99.99,,---,-99.99,VWS V14.01,2013-08-05 03:22:00,
2013-08-04 20:27:00,63.5,46.1,-100.00,North,-999,-999.0,-999.0,53,-99.99,,---,-99.99,VWS V14.01,2013-08-05 03:27:00,
2013-08-04 20:32:00,63.1,45.8,-100.00,North,-999,-999.0,-999.0,53,-99.99,,---,-99.99,VWS V14.01,2013-08-05 03:32:00,
2013-08-04 20:37:00,63.0,46.1,-100.00,North,-999,-999.0,-999.0,54,-99.99,,---,-99.99,VWS V14.01,2013-08-05 03:37:00,
2013-08-04 20:42:00,63.0,46.1,-100.00,North,-999,-999.0,-999.0,54,-99.99,,---,-99.99,VWS V14.01,2013-08-05 03:42:00,
2013-08-04 20:47:00,62.8,46.4,-100.00,North,-999,-999.0,-999.0,55,-99.99,,---,-99.99,VWS V14.01,2013-08-05 03:47:00,
2013-08-04 20:52:00,62.8,46.4,-100.00,North,-999,-999.0,-999.0,55,-99.99,,---,-99.99,VWS V14.01,2013-08-05 03:52:00,
2013-08-04 20:57:00,62.6,46.2,-100.00,North,-999,-999.0,-999.0,55,-99.99,,---,-99.99,VWS V14.01,2013-08-05 03:57:00,
2013-08-04 21:02:00,62.4,46.5,-100.00,North,-999,-999.0,-999.0,56,-99.99,,---,-99.99,VWS V14.01,2013-08-05 04:02:00,
2013-08-04 21:11:00,61.9,46.0,-100.00,North,-999,-999.0,-999.0,56,-99.99,,---,-99.99,VWS V14.01,2013-08-05 04:11:00,
2013-08-04 21:12:00,61.9,46.0,-100.00,North,-999,-999.0,-999.0,56,-99.99,,---,-99.99,VWS V14.01,2013-08-05 04:12:00,
2013-08-04 21:14:00,61.9,46.5,-100.00,North,-999,-999.0,-999.0,57,-99.99,,---,-99.99,VWS V14.01,2013-08-05 04:14:00,
2013-08-04 21:18:00,61.7,46.3,-100.00,North,-999,-999.0,-999.0,57,-99.99,,---,-99.99,VWS V14.01,2013-08-05 04:18:00,
2013-08-04 21:23:00,61.7,46.3,-100.00,North,-999,-999.0,-999.0,57,-99.99,,---,-99.99,VWS V14.01,2013-08-05 04:23:00,
2013-08-04 21:28:00,61.7,46.8,-100.00,North,-999,-999.0,-999.0,58,-99.99,,---,-99.99,VWS V14.01,2013-08-05 04:28:00,
2013-08-04 21:33:00,61.7,46.8,-100.00,North,-999,-999.0,-999.0,58,-99.99,,---,-99.99,VWS V14.01,2013-08-05 04:33:00,
2013-08-04 21:39:00,61.7,46.8,-100.00,North,-999,-999.0,-999.0,58,-99.99,,---,-99.99,VWS V14.01,2013-08-05 04:39:00,
2013-08-04 21:43:00,61.7,47.2,-100.00,North,-999,-999.0,-999.0,59,-99.99,,---,-99.99,VWS V14.01,2013-08-05 04:43:00,
2013-08-04 21:48:00,61.7,47.2,-100.00,North,-999,-999.0,-999.0,59,-99.99,,---,-99.99,VWS V14.01,2013-08-05 04:48:00,
2013-08-04 21:53:00,61.7,47.2,-100.00,North,-999,-999.0,-999.0,59,-99.99,,---,-99.99,VWS V14.01,2013-08-05 04:53:00,
2013-08-04 21:59:00,61.7,47.2,-100.00,North,-999,-999.0,-999.0,59,-99.99,,---,-99.99,VWS V14.01,2013-08-05 04:59:00,
2013-08-04 22:04:00,61.5,47.5,-100.00,North,-999,-999.0,-999.0,60,-99.99,,---,-99.99,VWS V14.01,2013-08-05 05:04:00,
2013-08-04 22:10:00,61.3,47.3,-100.00,North,-999,-999.0,-999.0,60,-99.99,,---,-99.99,VWS V14.01,2013-08-05 05:10:00,
2013-08-04 22:15:00,61.3,47.3,-100.00,North,-999,-999.0,-999.0,60,-99.99,,---,-99.99,VWS V14.01,2013-08-05 05:15:00,
2013-08-04 22:20:00,61.2,47.6,-100.00,North,-999,-999.0,-999.0,61,-99.99,,---,-99.99,VWS V14.01,2013-08-05 05:20:00,
2013-08-04 22:26:00,61.2,47.6,-100.00,North,-999,-999.0,-999.0,61,-99.99,,---,-99.99,VWS V14.01,2013-08-05 05:26:00,
2013-08-04 22:31:00,61.2,47.6,-100.00,North,-999,-999.0,-999.0,61,-99.99,,---,-99.99,VWS V14.01,2013-08-05 05:31:00,
2013-08-04 22:36:00,61.3,48.2,-100.00,North,-999,-999.0,-999.0,62,-99.99,,---,-99.99,VWS V14.01,2013-08-05 05:36:00,
2013-08-04 22:41:00,61.2,48.0,-100.00,North,-999,-999.0,-999.0,62,-99.99,,---,-99.99,VWS V14.01,2013-08-05 05:41:00,
2013-08-04 22:46:00,61.2,48.0,-100.00,North,-999,-999.0,-999.0,62,-99.99,,---,-99.99,VWS V14.01,2013-08-05 05:46:00,
2013-08-04 22:52:00,61.2,48.0,-100.00,North,-999,-999.0,-999.0,62,-99.99,,---,-99.99,VWS V14.01,2013-08-05 05:52:00,
2013-08-04 22:56:00,61.2,48.0,-100.00,North,-999,-999.0,-999.0,62,-99.99,,---,-99.99,VWS V14.01,2013-08-05 05:56:00,
2013-08-04 23:02:00,61.2,48.5,-100.00,North,-999,-999.0,-999.0,63,-99.99,,---,-99.99,VWS V14.01,2013-08-05 06:02:00,
2013-08-04 23:07:00,61.2,48.5,-100.00,North,-999,-999.0,-999.0,63,-99.99,,---,-99.99,VWS V14.01,2013-08-05 06:07:00,
2013-08-04 23:12:00,61.2,48.5,-100.00,North,-999,-999.0,-999.0,63,-99.99,,---,-99.99,VWS V14.01,2013-08-05 06:12:00,
2013-08-04 23:17:00,61.0,48.3,-100.00,North,-999,-999.0,-999.0,63,-99.99,,---,-99.99,VWS V14.01,2013-08-05 06:17:00,
2013-08-04 23:21:00,61.0,48.3,-100.00,North,-999,-999.0,-999.0,63,-99.99,,---,-99.99,VWS V14.01,2013-08-05 06:21:00,
2013-08-04 23:27:00,61.0,48.3,-100.00,North,-999,-999.0,-999.0,63,-99.99,,---,-99.99,VWS V14.01,2013-08-05 06:27:00,
2013-08-04 23:32:00,61.0,48.7,-100.00,North,-999,-999.0,-999.0,64,-99.99,,---,-99.99,VWS V14.01,2013-08-05 06:32:00,
2013-08-04 23:36:00,60.8,48.6,-100.00,North,-999,-999.0,-999.0,64,-99.99,,---,-99.99,VWS V14.01,2013-08-05 06:36:00,
2013-08-04 23:42:00,60.8,48.6,-100.00,North,-999,-999.0,-999.0,64,-99.99,,---,-99.99,VWS V14.01,2013-08-05 06:42:00,
2013-08-04 23:47:00,60.6,48.4,-100.00,North,-999,-999.0,-999.0,64,-99.99,,---,-99.99,VWS V14.01,2013-08-05 06:47:00,
2013-08-04 23:52:00,60.6,48.4,-100.00,North,-999,-999.0,-999.0,64,-99.99,,---,-99.99,VWS V14.01,2013-08-05 06:52:00,
2013-08-04 23:57:00,60.6,48.8,-100.00,North,-999,-999.0,-999.0,65,-99.99,,---,-99.99,VWS V14.01,2013-08-05 06:57:00,